Location: Tamazert
(32.6352°N, 5.2072°W)
Time: 18:03:40
(UTC+00:00)

Transit 2A Rocket - Pass Details

Date: 04 October 2022
Orbit: 589 x 912 km, 66.7° (Epoch: 07 December)

Event Time Altitude Azimuth Distance (km) Brightness Sun altitude
Rises 15:06:11 0° 332° (NNW) 3,073 8.1 34.0°
Reaches altitude 10° 15:08:26 10° 331° (NNW) 2,200 7.4 33.6°
Maximum altitude 15:13:28 78° 246° (WSW) 785 5.9 32.8°
Drops below altitude 10° 15:18:59 10° 160° (SSE) 2,406 7.8 31.8°
Sets 15:21:32 0° 159° (SSE) 3,382 8.4 31.3°
